{"data":{"norad_id":43928,"intl_designator":"2019-002G","name":"IRIDIUM 175","alt_names":[],"object_type":"PAYLOAD","status":"ACTIVE","operator":null,"country":"US","launch_date":"2019-01-11","launch_site_code":"AFWTR","launch_vehicle":null,"mission":null,"orbit_class":"UNKNOWN","rcs_meters":null,"size_class":null,"mass_kg":null,"dimensions":null,"purposes":["comms"],"wikipedia_slug":null,"has_3d_model":false,"image_url":null,"decayed_at":null,"tle_current":{"epoch":"2026-09-19T21:20:35.075040Z","epoch_age_seconds":68271,"freshness":"FRESH","line1":"1 43928U 19002G   26262.88929485  .00000121  00000+0  29813-4 0  9999","line2":"2 43928  86.4469 250.9136 0000920 272.2355  87.8741 14.43646429412643","mean_motion":14.43646429,"eccentricity":9.2e-5,"inclination_deg":86.4469,"raan_deg":250.9136,"arg_perigee_deg":272.2355,"mean_anomaly_deg":87.8741,"bstar":2.9813e-5,"rev_number":41264,"period_min":99.74741536939,"perigee_km":745.82056374203,"apogee_km":747.13149253921,"semimajor_km":7124.6130281406,"source":"CELESTRAK","updated_at":"2026-09-20T09:00:36.356170Z"}}}